GW0719 Weather Reports


time (UTC)temp
C
wind
direction
speed
KPH
gust
KPH
rain 1hr
cm
rain 24hr
cm
rain mn
cm
humidity
%
barometer
mb
20260905061138 13 338 0.0 0.0 0.00 0.00 0.00 10 1018.6
20260905060634 13 347 0.0 0.0 0.00 0.00 0.00 10 1018.1
20260905060130 13 2 0.0 0.0 0.00 0.00 0.00 10 1018.1
20260905055628 13 17 0.0 0.0 0.00 0.00 0.00 10 1018.4
20260905055124 13 27 0.0 0.0 0.00 0.00 0.00 10 1018.7
20260905054620 13 30 0.0 0.0 0.00 0.00 0.00 10 1018.3
20260905054115 13 353 0.0 0.0 0.00 0.00 0.00 10 1018.1
20260905053615 12 6 0.0 0.0 0.00 0.00 0.00 10 1018.4
20260905053110 13 48 0.0 0.0 0.00 0.00 0.00 10 1018.4
20260905052609 13 40 0.0 0.0 0.00 0.00 0.00 10 1018.4
20260905052104 13 46 0.0 0.0 0.00 0.00 0.00 10 1018.0
20260905051559 14 42 0.0 0.0 0.00 0.00 0.00 10 1018.6
20260905051055 15 36 0.0 0.0 0.00 0.00 0.00 10 1018.6
20260905050546 15 38 0.0 0.0 0.00 0.00 0.00 10 1018.5
20260905050043 15 15 0.0 0.0 0.00 0.00 0.00 10 1018.5
20260905045542 15 8 0.0 0.0 0.00 0.00 0.00 10 1018.5
20260905045033 15 17 0.0 0.0 0.00 0.00 0.00 10 1018.3
20260905044533 15 27 0.0 0.0 0.00 0.00 0.00 10 1018.0
20260905044032 15 42 0.0 0.0 0.00 0.00 0.00 10 1018.0
20260905043531 15 25 0.0 0.0 0.00 0.00 0.00 10 1018.1
20260905043022 15 49 0.0 0.0 0.00 0.00 0.00 10 1018.4
20260905042520 16 53 0.0 0.0 0.00 0.00 0.00 10 1018.9
20260905042016 16 50 0.0 0.0 0.00 0.00 0.00 10 1018.7
20260905041511 16 40 0.0 0.0 0.00 0.00 0.00 10 1018.3
20260905041007 16 30 0.0 0.0 0.00 0.00 0.00 10 1018.3
20260905040506 16 13 0.0 0.0 0.00 0.00 0.00 10 1017.6
20260905040005 16 358 0.0 0.0 0.00 0.00 0.00 10 1017.4
20260905035500 16 6 0.0 0.0 0.00 0.00 0.00 10 1017.3
20260905034958 16 1 0.0 0.0 0.00 0.00 0.00 10 1017.3
20260905034458 16 15 0.0 0.0 0.00 0.00 0.00 10 1017.0
20260905033956 16 33 0.0 0.0 0.00 0.00 0.00 10 1017.2
20260905033451 16 31 0.0 0.0 0.00 0.00 0.00 10 1017.0
20260905032946 16 23 0.0 1.6 0.00 0.00 0.00 10 1017.0
20260905032442 17 38 0.0 3.2 0.00 0.00 0.00 10 1017.3
20260905031936 17 26 0.0 1.6 0.00 0.00 0.00 10 1017.4
20260905031432 17 37 0.0 1.6 0.00 0.00 0.00 10 1017.3
20260905030927 17 359 0.0 0.0 0.00 0.00 0.00 10 1017.0
20260905030423 17 359 0.0 0.0 0.00 0.00 0.00 10 1016.9
20260905025922 17 24 1.6 1.6 0.00 0.00 0.00 10 1016.8
20260905025417 17 16 1.6 3.2 0.00 0.00 0.00 10 1017.0
20260905024914 17 2 0.0 1.6 0.00 0.00 0.00 10 1016.8
20260905024414 17 352 0.0 0.0 0.00 0.00 0.00 10 1016.7
20260905023909 17 24 0.0 1.6 0.00 0.00 0.00 10 1016.4
20260905023405 17 5 0.0 3.2 0.00 0.00 0.00 10 1016.4
20260905022903 17 10 0.0 1.6 0.00 0.00 0.00 10 1016.3
20260905022353 17 23 0.0 1.6 0.00 0.00 0.00 10 1016.3
20260905021848 17 26 0.0 1.6 0.00 0.00 0.00 10 1016.4
20260905021343 17 357 1.6 3.2 0.00 0.00 0.00 10 1016.1
20260905020838 17 351 1.6 3.2 0.00 0.00 0.00 10 1015.5
20260905020332 17 20 1.6 3.2 0.00 0.00 0.00 10 1015.8
20260905015832 17 13 0.0 1.6 0.00 0.00 0.00 10 1015.5
20260905015331 18 18 0.0 0.0 0.00 0.00 0.00 10 1015.3
20260905014825 17 23 1.6 4.8 0.00 0.00 0.00 10 1015.1
20260905014321 17 352 0.0 0.0 0.00 0.00 0.00 10 1015.2
20260905013816 17 36 0.0 1.6 0.00 0.00 0.00 10 1015.3
20260905013312 18 33 0.0 0.0 0.00 0.00 0.00 10 1015.3
20260905012807 18 20 0.0 0.0 0.00 0.00 0.00 10 1014.7
20260905012306 18 72 0.0 0.0 0.00 0.00 0.00 10 1015.0
20260905011759 18 351 0.0 3.2 0.00 0.00 0.00 10 1014.8
20260905011254 18 7 0.0 1.6 0.00 0.00 0.00 10 1014.6
20260905010749 18 12 0.0 1.6 0.00 0.00 0.00 10 1014.7
20260905010244 18 12 3.2 4.8 0.00 0.00 0.00 10 1015.0
20260905005741 18 5 0.0 0.0 0.00 0.00 0.00 10 1015.2
20260905005237 18 0 0.0 0.0 0.00 0.00 0.00 10 1015.1
20260905004736 18 13 0.0 1.6 0.00 0.00 0.00 10 1015.0
20260905004231 19 15 0.0 1.6 0.00 0.00 0.00 10 1015.2
20260905003731 19 344 0.0 0.0 0.00 0.00 0.00 10 1014.8
20260905003227 19 1 0.0 0.0 0.00 0.00 0.00 10 1014.8
20260905002723 19 18 0.0 0.0 0.00 0.00 0.00 10 1014.8
20260905002222 19 11 1.6 1.6 0.00 0.00 0.00 10 1015.0
20260905001723 20 351 1.6 8.0 0.00 0.00 0.00 10 1015.0
20260905001222 20 20 0.0 1.6 0.00 0.00 0.00 10 1015.1
20260905000717 20 20 0.0 0.0 0.00 0.00 0.00 10 1014.8
20260905000213 20 9 0.0 3.2 0.00 0.00 0.00 10 1015.0
20260904235708 20 15 0.0 3.2 0.00 0.00 0.00 10 1015.4
20260904235203 20 10 0.0 4.8 0.00 0.00 0.00 10 1015.3
20260904234657 20 11 3.2 4.8 0.00 0.00 0.00 10 1015.3
20260904234153 20 15 3.2 4.8 0.00 0.00 0.00 10 1015.3
20260904233648 20 358 1.6 3.2 0.00 0.00 0.00 10 1015.2
20260904233144 21 23 0.0 4.8 0.00 0.00 0.00 10 1015.3
20260904232641 21 352 0.0 1.6 0.00 0.00 0.00 10 1015.4
20260904232136 20 358 0.0 8.0 0.00 0.00 0.00 10 1015.1
20260904231632 20 352 1.6 4.8 0.00 0.00 0.00 10 1014.8
20260904231127 21 1 0.0 8.0 0.00 0.00 0.00 10 1014.8
20260904230627 20 12 0.0 4.8 0.00 0.00 0.00 10 1015.2
20260904230122 20 347 3.2 4.8 0.00 0.00 0.00 10 1014.8
20260904225620 20 7 0.0 4.8 0.00 0.00 0.00 10 1014.7
20260904225115 20 348 3.2 4.8 0.00 0.00 0.00 10 1014.8
20260904224609 21 354 3.2 8.0 0.00 0.00 0.00 10 1014.5
20260904224104 21 25 0.0 4.8 0.00 0.00 0.00 10 1014.7
20260904223603 21 20 1.6 3.2 0.00 0.00 0.00 10 1014.2
20260904223059 22 5 1.6 4.8 0.00 0.00 0.00 10 1014.2
20260904222554 22 327 0.0 0.0 0.00 0.00 0.00 10 1014.4
20260904222044 22 311 1.6 4.8 0.00 0.00 0.00 10 1014.2
20260904221538 22 334 0.0 3.2 0.00 0.00 0.00 10 1014.1
20260904221033 22 318 0.0 4.8 0.00 0.00 0.00 10 1014.3
20260904220533 22 315 0.0 3.2 0.00 0.00 0.00 10 1014.1
20260904220029 22 326 0.0 3.2 0.00 0.00 0.00 10 1014.0
20260904215528 22 7 1.6 3.2 0.00 0.00 0.00 10 1014.3
20260904215024 22 328 1.6 1.6 0.00 0.00 0.00 10 1014.1
20260904214519 22 304 0.0 4.8 0.00 0.00 0.00 10 1013.9
20260904214015 23 328 0.0 1.6 0.00 0.00 0.00 10 1013.9
20260904213513 22 27 0.0 3.2 0.00 0.00 0.00 10 1014.0
20260904213010 22 23 0.0 0.0 0.00 0.00 0.00 10 1014.0
20260904212509 22 31 0.0 0.0 0.00 0.00 0.00 10 1013.6
20260904212004 22 50 0.0 0.0 0.00 0.00 0.00 10 1013.6
20260904211458 22 7 0.0 0.0 0.00 0.00 0.00 10 1013.3
20260904210954 21 43 0.0 0.0 0.00 0.00 0.00 10 1013.5
20260904210453 22 37 0.0 0.0 0.00 0.00 0.00 10 1013.2
20260904205949 21 356 0.0 0.0 0.00 0.00 0.00 10 1013.3
20260904205444 21 37 0.0 0.0 0.00 0.00 0.00 10 1013.3
20260904204941 21 1 0.0 0.0 0.00 0.00 0.00 10 1013.2
20260904204437 21 44 0.0 0.0 0.00 0.00 0.00 10 1013.1
20260904203933 21 38 0.0 0.0 0.00 0.00 0.00 10 1013.0
20260904203429 21 22 0.0 1.6 0.00 0.00 0.00 10 1013.3
20260904202925 21 38 0.0 0.0 0.00 0.00 0.00 10 1012.9
20260904202420 21 12 0.0 0.0 0.00 0.00 0.00 10 1013.0
20260904201916 21 18 0.0 0.0 0.00 0.00 0.00 10 1012.7
20260904201411 21 335 0.0 0.0 0.00 0.00 0.00 10 1012.7
20260904200907 22 30 0.0 0.0 0.00 0.00 0.00 10 1013.0
20260904200405 21 43 0.0 0.0 0.00 0.00 0.00 10 1012.9
20260904195900 21 37 0.0 0.0 0.00 0.00 0.00 10 1012.6
20260904195358 21 35 0.0 0.0 0.00 0.00 0.00 10 1012.5
20260904194853 22 40 0.0 0.0 0.00 0.00 0.00 10 1012.2
20260904194352 22 91 0.0 1.6 0.00 0.00 0.00 10 1012.3
20260904193848 22 358 0.0 1.6 0.00 0.00 0.00 10 1012.2
20260904193343 21 54 0.0 0.0 0.00 0.00 0.00 10 1012.2
20260904192838 21 24 0.0 0.0 0.00 0.00 0.00 10 1012.0
20260904192334 21 20 0.0 1.6 0.00 0.00 0.00 10 1012.1
20260904191830 21 47 0.0 0.0 0.00 0.00 0.00 10 1012.0
20260904191327 21 38 0.0 0.0 0.00 0.00 0.00 10 1011.9
20260904190823 21 52 0.0 0.0 0.00 0.00 0.00 10 1011.8
20260904190319 21 54 0.0 0.0 0.00 0.00 0.00 10 1011.8
20260904185814 22 58 0.0 0.0 0.00 0.00 0.00 10 1011.8
20260904185310 21 59 0.0 0.0 0.00 0.00 0.00 10 1011.6
20260904184809 21 37 0.0 0.0 0.00 0.00 0.00 10 1011.9
20260904184304 21 36 0.0 0.0 0.00 0.00 0.00 10 1012.1
20260904183759 20 345 0.0 0.0 0.00 0.00 0.00 10 1011.6
20260904183254 20 38 0.0 0.0 0.00 0.00 0.00 10 1011.9
20260904182750 21 207 0.0 0.0 0.00 0.00 0.00 10 1011.6
20260904182244 21 324 0.0 0.0 0.00 0.00 0.00 10 1011.6
20260904181740 20 44 0.0 0.0 0.00 0.00 0.00 10 1011.6
20260904181239 21 19 0.0 0.0 0.00 0.00 0.00 10 1011.6
20260904180735 20 30 0.0 1.6 0.00 0.00 0.00 10 1011.6
20260904180231 20 224 0.0 0.0 0.00 0.00 0.00 10 1011.8
20260904175729 20 89 0.0 0.0 0.00 0.00 0.00 10 1011.6
20260904175228 20 133 0.0 0.0 0.00 0.00 0.00 10 1011.5
20260904174723 20 192 0.0 0.0 0.00 0.00 0.00 10 1011.4
20260904174219 20 60 0.0 0.0 0.00 0.00 0.00 10 1011.2
20260904173714 20 120 0.0 0.0 0.00 0.00 0.00 10 1011.4
20260904173209 20 136 0.0 0.0 0.00 0.00 0.00 10 1011.3
20260904172705 19 98 0.0 0.0 0.00 0.00 0.00 10 1011.5
20260904172204 19 237 0.0 0.0 0.00 0.00 0.00 10 1011.5
20260904171700 19 257 0.0 0.0 0.00 0.00 0.00 10 1011.4
20260904171155 18 223 0.0 0.0 0.00 0.00 0.00 10 1011.3
20260904170651 19 242 0.0 0.0 0.00 0.00 0.00 10 1011.2
20260904170147 19 280 0.0 0.0 0.00 0.00 0.00 10 1011.4
20260904165645 19 252 0.0 1.6 0.00 0.00 0.00 10 1011.3
20260904165144 19 258 0.0 0.0 0.00 0.00 0.00 10 1011.3
20260904164640 19 338 0.0 0.0 0.00 0.00 0.00 10 1011.3
20260904164135 19 356 0.0 0.0 0.00 0.00 0.00 10 1011.2
20260904163630 19 318 0.0 0.0 0.00 0.00 0.00 10 1011.0
20260904163120 19 44 0.0 0.0 0.00 0.00 0.00 10 1011.1
20260904162620 18 26 0.0 0.0 0.00 0.00 0.00 10 1011.0
20260904162115 18 313 0.0 1.6 0.00 0.00 0.00 10 1011.0
20260904161610 18 33 0.0 1.6 0.00 0.00 0.00 10 1010.9
20260904161105 17 41 0.0 1.6 0.00 0.00 0.00 10 1010.8
20260904160601 17 25 0.0 0.0 0.00 0.00 0.00 10 1011.0
20260904160057 17 48 0.0 0.0 0.00 0.00 0.00 10 1010.8
20260904155556 17 45 0.0 0.0 0.00 0.00 0.00 10 1010.4
20260904155050 17 42 0.0 0.0 0.00 0.00 0.00 10 1010.5
20260904154544 17 38 0.0 0.0 0.00 0.00 0.00 10 1010.2
20260904154038 17 43 0.0 0.0 0.00 0.00 0.00 10 1010.2
20260904153537 17 58 0.0 0.0 0.00 0.00 0.00 10 1009.9
20260904153034 16 42 0.0 0.0 0.00 0.00 0.00 10 1010.0
20260904152530 17 50 0.0 0.0 0.00 0.00 0.00 10 1010.1
20260904152025 17 47 0.0 0.0 0.00 0.00 0.00 10 1009.9
20260904151520 17 52 0.0 0.0 0.00 0.00 0.00 10 1009.6
20260904151014 17 47 0.0 0.0 0.00 0.00 0.00 10 1009.7
20260904150514 16 47 0.0 0.0 0.00 0.00 0.00 10 1009.8
20260904150009 16 27 0.0 0.0 0.00 0.00 0.00 10 1009.8
20260904145503 16 27 0.0 1.6 0.00 0.00 0.00 10 1009.7
20260904144958 15 42 0.0 3.2 0.00 0.00 0.00 10 1009.3
20260904144454 14 30 0.0 0.0 0.00 0.00 0.00 10 1009.4
20260904143950 13 9 0.0 0.0 0.00 0.00 0.00 10 1010.0
20260904143446 13 31 0.0 0.0 0.00 0.00 0.00 10 1010.1
20260904142943 13 42 0.0 1.6 0.00 0.00 0.00 10 1009.7
20260904142439 13 36 0.0 0.0 0.00 0.00 0.00 10 1009.6
20260904141938 13 10 0.0 1.6 0.00 0.00 0.00 10 1009.6
20260904141433 13 48 0.0 1.6 0.00 0.00 0.00 10 1009.7
20260904140931 13 38 0.0 0.0 0.00 0.00 0.00 10 1009.8
20260904140430 12 46 0.0 0.0 0.00 0.00 0.00 10 1009.8
20260904135929 12 55 0.0 0.0 0.00 0.00 0.00 10 1009.9
20260904135429 12 46 0.0 0.0 0.00 0.00 0.00 10 1009.9
20260904134925 12 38 0.0 0.0 0.00 0.00 0.00 10 1010.0
20260904134425 12 29 0.0 1.6 0.00 0.00 0.00 10 1010.1
20260904133920 12 31 0.0 1.6 0.00 0.00 0.00 10 1010.0
20260904133414 11 33 0.0 0.0 0.00 0.00 0.00 10 1010.0
20260904132910 11 41 0.0 0.0 0.00 0.00 0.00 10 1010.1
20260904132405 11 44 0.0 0.0 0.00 0.00 0.00 10 1010.1
20260904131905 11 42 0.0 0.0 0.00 0.00 0.00 10 1009.9
20260904131400 11 44 0.0 0.0 0.00 0.00 0.00 10 1009.8
20260904130855 10 34 0.0 0.0 0.00 0.00 0.00 10 1009.6
20260904130355 10 49 0.0 0.0 0.00 0.00 0.00 10 1009.7
20260904125850 10 47 0.0 0.0 0.00 0.00 0.00 10 1009.8
20260904125346 10 53 0.0 0.0 0.00 0.00 0.00 10 1009.7
20260904124845 10 42 0.0 0.0 0.00 0.00 0.00 10 1009.7
20260904124342 10 36 0.0 0.0 0.00 0.00 0.00 10 1009.4
20260904123836 11 37 0.0 0.0 0.00 0.00 0.00 10 1009.4
20260904123332 11 31 0.0 0.0 0.00 0.00 0.00 10 1009.3
20260904122827 11 45 0.0 0.0 0.00 0.00 0.00 10 1009.7
20260904122327 11 38 0.0 0.0 0.00 0.00 0.00 10 1009.7
20260904121821 11 35 0.0 0.0 0.00 0.00 0.00 10 1009.7
20260904121318 11 34 0.0 0.0 0.00 0.00 0.00 10 1009.7
20260904120814 11 30 0.0 0.0 0.00 0.00 0.00 10 1009.8
20260904120309 10 38 0.0 0.0 0.00 0.00 0.00 10 1009.7
20260904115804 11 42 0.0 0.0 0.00 0.00 0.00 10 1009.7
20260904115300 11 35 0.0 0.0 0.00 0.00 0.00 10 1009.8
20260904114754 11 43 0.0 0.0 0.00 0.00 0.00 10 1009.6
20260904114254 11 39 0.0 0.0 0.00 0.00 0.00 10 1009.8
20260904113749 11 45 0.0 0.0 0.00 0.00 0.00 10 1009.6
20260904113248 11 43 0.0 0.0 0.00 0.00 0.00 10 1009.4
20260904112743 11 38 0.0 0.0 0.00 0.00 0.00 10 1009.7
20260904112239 11 40 0.0 0.0 0.00 0.00 0.00 10 1009.8
20260904111735 11 40 0.0 0.0 0.00 0.00 0.00 10 1009.8
20260904111230 12 47 0.0 0.0 0.00 0.00 0.00 10 1009.7
20260904110726 12 46 0.0 0.0 0.00 0.00 0.00 10 1009.9
20260904110225 12 46 0.0 0.0 0.00 0.00 0.00 10 1009.8
20260904105720 12 58 0.0 0.0 0.00 0.00 0.00 10 1009.9
20260904105215 12 56 0.0 0.0 0.00 0.00 0.00 10 1009.9
20260904104710 12 49 0.0 0.0 0.00 0.00 0.00 10 1009.9
20260904104206 12 45 0.0 0.0 0.00 0.00 0.00 10 1010.2
20260904103702 12 43 0.0 0.0 0.00 0.00 0.00 10 1010.0
20260904103157 11 47 0.0 0.0 0.00 0.00 0.00 10 1010.1
20260904102653 11 53 0.0 0.0 0.00 0.00 0.00 10 1010.3
20260904102148 11 43 0.0 0.0 0.00 0.00 0.00 10 1010.4
20260904101645 10 44 0.0 0.0 0.00 0.00 0.00 10 1010.3
20260904101140 10 32 0.0 0.0 0.00 0.00 0.00 10 1010.3
20260904100635 10 28 0.0 0.0 0.00 0.00 0.00 10 1010.2
20260904100125 10 47 0.0 0.0 0.00 0.00 0.00 10 1010.3
20260904095620 10 35 0.0 0.0 0.00 0.00 0.00 10 1010.5
20260904095120 11 27 0.0 0.0 0.00 0.00 0.00 10 1010.3
20260904094615 11 32 0.0 0.0 0.00 0.00 0.00 10 1010.3
20260904094109 11 46 0.0 0.0 0.00 0.00 0.00 10 1010.5
20260904093607 11 42 0.0 0.0 0.00 0.00 0.00 10 1010.8
20260904093101 10 41 0.0 0.0 0.00 0.00 0.00 10 1010.4
20260904092557 10 53 0.0 0.0 0.00 0.00 0.00 10 1010.3
20260904092053 10 46 0.0 0.0 0.00 0.00 0.00 10 1010.7
20260904091549 9 48 0.0 0.0 0.00 0.00 0.00 10 1010.7
20260904091048 9 44 0.0 0.0 0.00 0.00 0.00 10 1010.8
20260904090544 10 36 0.0 0.0 0.00 0.00 0.00 10 1010.9
20260904090040 10 51 0.0 0.0 0.00 0.00 0.00 10 1010.9
20260904085540 10 49 0.0 0.0 0.00 0.00 0.00 10 1011.0
20260904085039 10 51 0.0 0.0 0.00 0.00 0.00 10 1010.9
20260904084536 10 47 0.0 0.0 0.00 0.00 0.00 10 1010.8
20260904084032 10 65 0.0 0.0 0.00 0.00 0.00 10 1011.0
20260904083527 10 86 0.0 0.0 0.00 0.00 0.00 10 1011.0
20260904083023 10 84 0.0 0.0 0.00 0.00 0.00 10 1011.1
20260904082518 10 86 0.0 0.0 0.00 0.00 0.00 10 1011.0
20260904082013 10 101 0.0 0.0 0.00 0.00 0.00 10 1011.3
20260904081508 10 81 0.0 0.0 0.00 0.00 0.00 10 1011.0
20260904081004 11 51 0.0 0.0 0.00 0.00 0.00 10 1011.4
20260904080459 11 71 0.0 0.0 0.00 0.00 0.00 10 1011.4
20260904075955 11 60 0.0 0.0 0.00 0.00 0.00 10 1011.5
20260904075451 12 67 0.0 0.0 0.00 0.00 0.00 10 1011.3
20260904074950 12 76 0.0 0.0 0.00 0.00 0.00 10 1011.3
20260904074445 12 83 0.0 0.0 0.00 0.00 0.00 10 1011.5
20260904073940 12 70 0.0 0.0 0.00 0.00 0.00 10 1011.4
20260904073436 13 59 0.0 0.0 0.00 0.00 0.00 10 1011.3
20260904072931 12 64 0.0 0.0 0.00 0.00 0.00 10 1011.4
20260904072427 12 49 0.0 0.0 0.00 0.00 0.00 10 1011.4
20260904071921 13 49 0.0 0.0 0.00 0.00 0.00 10 1011.5
20260904071417 13 49 0.0 0.0 0.00 0.00 0.00 10 1011.6
20260904070912 13 49 0.0 0.0 0.00 0.00 0.00 10 1011.5
20260904070411 13 49 0.0 0.0 0.00 0.00 0.00 10 1011.6
20260904065910 13 50 0.0 0.0 0.00 0.00 0.00 10 1011.5
20260904065407 13 50 0.0 0.0 0.00 0.00 0.00 10 1011.8
20260904064906 13 50 0.0 0.0 0.00 0.00 0.00 10 1011.8
20260904064403 13 50 0.0 0.0 0.00 0.00 0.00 10 1011.8
20260904063858 13 49 0.0 0.0 0.00 0.00 0.00 10 1011.6
20260904063355 13 48 0.0 0.0 0.00 0.00 0.00 10 1011.6
20260904062849 13 44 0.0 0.0 0.00 0.00 0.00 10 1011.8
20260904062345 13 26 0.0 0.0 0.00 0.00 0.00 10 1011.5
20260904061841 13 13 0.0 0.0 0.00 0.00 0.00 10 1011.6
20260904061337 13 36 0.0 0.0 0.00 0.00 0.00 10 1011.8